Погода в Алексеевой

Россия / Брянская область     52°57′25″N   34°56′50″E
темп.,
°C
ветер,
м/с
пор.,
м/с
влажн.,
%
обл.,
%
осадки,
мм/ч
давл.,
гПа
погр.,
м
7 мая, пт
пт700:00+6з3589100 0.0 101189
03:00+5зюз2288100 0.0 101238
06:00+5зюз348940 0.0 101275
09:00+10юз35615 0.0 1013557
12:00+13юз464012 0.0 10132114
15:00+14ююз5744100 0.0 10122239
18:00+13ю596040 0.2 1011661
21:00+10ююв61371100 0.2 1010357
8 мая, сб
сб800:00+9ююв61682100 0.8 1009879
03:00+8ююв81591100 4.4 1007746
06:00+9ю71493100 2.8 1005790
09:00+9ю51197100 5.4 1003779
12:00+10зсз3592100 2.4 1003332
15:00+10юз3690100 2.4 1004393
18:00+9юз8119089 0.5 1004733
21:00+5зюз81194100 0.5 1004686
9 мая, вс
вс900:00+3зсз101797100 3.7 10071048
03:00+4зсз91796100 8.6 10111065
06:00+4зсз81391100 0.6 1013805
09:00+6сз8108095 0.7 1016975
12:00+8ссз8106987 0.1 10191414
15:00+11с7104980 0.1 10192294
18:00+11ссз69556 0.0 10211475
21:00+6сз34671 0.0 102459
10 мая, пн
пн1000:00+4сз35774 0.0 102681
03:00+3ссз47785 0.0 1027106
06:00+3с387674 0.0 1029146
09:00+10с575865 0.0 1029500
12:00+13ссв57455 0.0 10281554
15:00+15ссв68432 0.0 10271619
18:00+14ссв59582 0.0 1027721
21:00+8св48790 0.0 1028114
11 мая, вт
вт1100:00+6ссв412815 0.0 1028217
03:00+5ссв412805 0.0 1028232
06:00+6св514790 0.0 1027322
09:00+11св711700 0.0 1027505
12:00+16всв79640 0.0 1026801
15:00+18всв796639 0.0 10241175
18:00+16в5974100 0.0 1025448
21:00+13в359056 0.1 1025111